Flag for U.S.A. Weather past 2 weeks in San Antonio, Texas, U.S.A.

Now
55 °F

Mostly cloudy.


Feels Like: 53 °F
Forecast: 55 / 72 °F
Wind: 8 mph from Southwest

Location: San Antonio International Airport

Current Time: Dec 21, 2014 at 9:05:34 PM

Latest Report: Dec 21, 2014 at 7:51 PM


Visibility: 10 mi

Pressure: 29.86 "Hg

Humidity: 87%

Dew point: 51 °F

Location of San AntonioLocation

Historic Weather in San Antonio — Graph

°F

San Antonio temperature yesterday

Maximum temperature yesterday: 59 °F (at 2:51 PM)
Minimum temperature yesterday: 48 °F (at 2:56 AM)
Average temperature yesterday: 52 °F

Past Weeks' High & Low Weather Summary

 TemperatureHumidityPressure
High76 °F (Dec 15, 2:51 PM)97% (Dec 13, 4:51 AM)30.34 "Hg (Dec 13, 4:51 AM)
Low46 °F (Dec 9, 4:51 AM)20% (Dec 15, 3:51 PM)29.81 "Hg (Dec 14, 4:51 PM)
Average59 °F74%30.12 "Hg
* Reported Dec 6 7:51 PM — Dec 21 7:51 PM, San Antonio, Weather by CustomWeather, © 2014

Note: Actual official high and low records may vary slightly from our data, if they occured in-between our weather recording intervals... More about our weather records

Advertising

San Antonio weather history for previous 24 hours

 ConditionsComfort  
Time TempWeatherWind HumidityBarometerVisibility
7:51 PM
Dec 21
55 °FMostly cloudy.8 mph87%29.86 "Hg10 mi
6:51 PM55 °FOvercast.13 mph83%29.87 "Hg10 mi
5:51 PM55 °FOvercast.12 mph83%29.87 "Hg10 mi
4:51 PM55 °FOvercast.12 mph83%29.88 "Hg10 mi
3:51 PM56 °FOvercast.6 mph81%29.90 "Hg10 mi
2:51 PM55 °FOvercast.12 mph83%29.91 "Hg10 mi
1:51 PM55 °FOvercast.9 mph83%29.95 "Hg10 mi
12:51 PM55 °FOvercast.9 mph83%29.98 "Hg10 mi
11:51 AM55 °FOvercast.6 mph83%30.03 "Hg9 mi
10:51 AM54 °FOvercast.7 mph80%30.05 "Hg10 mi
9:51 AM54 °FMore clouds than sun.6 mph80%30.07 "Hg10 mi
8:51 AM52 °FFog.8 mph89%30.08 "Hg2 mi
7:56 AM52 °FDrizzle. Fog.7 mph89%30.09 "Hg2 mi
6:51 AM52 °FOvercast.8 mph86%30.07 "Hg10 mi
5:51 AM52 °FOvercast.6 mph86%30.06 "Hg9 mi
4:51 AM52 °FLow clouds.3 mph86%30.05 "Hg9 mi
3:58 AM52 °FMostly cloudy.5 mph89%30.11 "Hg8 mi
2:51 AM52 °FOvercast.6 mph86%30.09 "Hg8 mi
1:51 AM52 °FOvercast.6 mph86%30.10 "Hg9 mi
12:51 AM52 °FOvercast.6 mph86%30.13 "Hg9 mi
11:51 PM
Dec 20
53 °FOvercast.3 mph80%30.14 "Hg10 mi
10:51 PM53 °FOvercast.3 mph77%30.15 "Hg10 mi
9:51 PM53 °FOvercast.6 mph74%30.14 "Hg10 mi
Weather by CustomWeather, © 2014

See weather overviewHow to use our weather pages